SBIRS GEO-3 (USA 282)

Last updated on Sat Nov 15 2025 00:02:51 GMT+0000 (Coordinated Universal Time)

1 43162U 18009A 25318.49299999 .00000131 00000+0 00000+0 0 9996 2 43162 2.0888 1.0878 0002143 238.4965 192.3517 1.00272527 28694
UTC large
Height (km)
Speed (km/s)
/
Latitude / Longitude
Inclination (degrees)
Orbital Period (minutes)
Azimuth
Elevation
Range (km)
Doppler Factor

Next 0 passes for location: London (51.5072 / 0.1276)

Sorry there are no passes over London.